{"data":{"norad_id":64809,"epoch":"2026-09-20T14:31:39.550368Z","epoch_age_seconds":118471,"freshness":"FRESH","line1":"1 64809U 25150V   26263.60531887  .00001173  00000+0  10609-3 0  9997","line2":"2 64809  70.0031   2.9928 0003162 268.2877  91.7920 14.98332533 65710","mean_motion":14.98332533,"eccentricity":0.0003162,"inclination_deg":70.0031,"raan_deg":2.9928,"arg_perigee_deg":268.2877,"mean_anomaly_deg":91.792,"bstar":0.00010609,"rev_number":6571,"period_min":96.106836652395,"perigee_km":569.8504093466,"apogee_km":574.2457063772,"semimajor_km":6950.1850578619,"source":"CELESTRAK","updated_at":"2026-09-21T09:00:35.446549Z"}}